Location: *
(2.5500°S, 65.9667°W)
Time: 21:24:48
(UTC+00:00)

SRMSAT - Pass Details

Date: 03 July 2022
Orbit: 848 x 865 km, 20.0° (Epoch: 07 August)

Event Time Altitude Azimuth Distance (km) Brightness Sun altitude
Rises 22:42:36 0° 286° (WNW) 3,424 ? -4.3°
Reaches altitude 10° 22:46:13 10° 307° (NW) 2,483 ? -5.1°
Maximum altitude 22:49:47 16° 344° (NNW) 2,078 ? -5.9°
Drops below altitude 10° 22:53:20 10° 21° (NNE) 2,475 ? -6.8°
Sets 22:56:56 0° 42° (NE) 3,406 ? -7.6°
